Location: Beaurevoir
(49.9971°N, 3.3085°E)
Time: 04:48:34
(UTC+00:00)

Cosmos 1441 Rocket - Pass Details

Date: 23 May 2024
Orbit: 467 x 502 km, 81.1° (Epoch: 19 June)

Event Time Altitude Azimuth Distance (km) Brightness Sun altitude
Rises 00:22:20 0° 340° (NNW) 2,531 7.8 -18.8°
Reaches altitude 10° 00:24:33 10° 332° (NNW) 1,643 6.5 -18.8°
Maximum altitude 00:27:50 35° 265° (W) 776 3.9 -18.7°
Enters shadow 00:28:07 35° 254° (WSW) 784 3.8 -18.7°
